Location: Asheville, NC
(35.6000°N, 82.5500°W)
Time: 17:51:35
(UTC-05:00)

ISS - Pass Details

Date: 23 January 2019
Orbit: 404 x 411 km, 51.6° (Epoch: 19 January)

Event Time Altitude Azimuth Distance (km) Brightness Sun altitude
Rises 18:44:11 0° 237° (WSW) 2,312 1.6 -11.5°
Reaches altitude 10° 18:46:17 10° 243° (WSW) 1,457 0.4 -11.9°
Maximum altitude 18:49:29 52° 321° (NW) 510 -3.2 -12.6°
Enters shadow 18:51:51 17° 35° (NE) 1,131 -2.0 -13.0°
